Regional Weather Roundup
Issued by NWS Little Rock, AR

Home | Current Version | Previous Version | Graphics & Text | Print | Product List | Glossary On
Versions: 1 2 3 4 5 6 7 8 9 10 11 12 13 14 15 16 17 18 19 20 21 22 23 24 25 26 27 28 29 30 31 32 33 34 35 36 37 38 39 40 41 42 43 44 45 46 47 48 49 50
000
ASUS44 KLZK 182205
RWRLZK

WEATHER ROUNDUP FOR ARKANSAS
NATIONAL WEATHER SERVICE LITTLE ROCK AR
400 PM CST THU DEC 18 2014

NOTE: "FAIR" INDICATES FEW OR NO CLOUDS BELOW 12,000 FEET WITH NO
SIGNIFICANT WEATHER AND/OR OBSTRUCTIONS TO VISIBILITY.

ARZ001-003-010-029-182300-
NORTHWEST ARKANSAS

CITY           SKY/WX    TMP DP  RH WIND       PRES   REMARKS
FAYETTEVILLE   CLOUDY    40  38  93 W3        30.14S
FORT SMITH     CLOUDY    41  37  86 E6        30.17S
HARRISON       CLOUDY    39  37  92 E5        30.14S
BENTONVILLE    CLOUDY    39  36  87 CALM      30.15S
ROGERS         CLOUDY    39  37  92 W5        30.15S FOG
SILOAM SPGS    CLOUDY    39  34  81 CALM      30.16S
HIGHFILL       CLOUDY    40  38  93 NW3       30.14S
SPRINGDALE     CLOUDY    39  37  93 W5        30.16S FOG
$$

ARZ004-005-016-182300-
NORTH CENTRAL ARKANSAS

CITY           SKY/WX    TMP DP  RH WIND       PRES   REMARKS
BATESVILLE     CLOUDY    39  36  87 CALM      30.19S
FLIPPIN        CLOUDY    39  34  81 E3        30.16S
MTN HOME       CLOUDY    38  35  89 CALM      30.16S
$$

ARZ040-041-182300-
WEST CENTRAL ARKANSAS

CITY           SKY/WX    TMP DP  RH WIND       PRES   REMARKS
MENA           CLOUDY    46  43  87 E3        30.12S
MOUNT IDA      CLOUDY    44  41  89 CALM      30.12S
$$

ARZ009-017-025-026-028-182300-
NORTHEAST ARKANSAS

CITY           SKY/WX    TMP DP  RH WIND       PRES   REMARKS
CORNING        CLOUDY    39  36  87 NE7       30.21S
JONESBORO      CLOUDY    42  37  82 NE6       30.19S
NEWPORT        CLOUDY    42  37  82 NE5       30.21R
WALNUT RIDGE   CLOUDY    41  34  75 E5        30.19F
BLYTHEVILLE    CLOUDY    43  36  76 NE6       30.20S
NW BLYTHEVILLE CLOUDY    43  36  75 NE3       30.20S
$$

ARZ022-023-033-042-044-182300-
CENTRAL ARKANSAS

CITY           SKY/WX    TMP DP  RH WIND       PRES   REMARKS
LITTLE ROCK    CLOUDY    43  38  82 NE3       30.19R
N LITTLE ROCK  CLOUDY    40  40  99 NE5       30.19R
JACKSONVILLE   CLOUDY    41  39  93 N5        30.19R
SEARCY         CLOUDY    41  39  93 NE3       30.21R FOG
HOT SPRINGS    CLOUDY    44  40  85 E5        30.16S
RUSSELLVILLE   CLOUDY    41  37  86 CALM      30.17R
CLINTON        CLOUDY    39  37  93 CALM      30.19S FOG
$$

ARZ036-182300-
EAST ARKANSAS

CITY           SKY/WX    TMP DP  RH WIND       PRES   REMARKS
WEST MEMPHIS   CLOUDY    44  39  82 N3        30.18S
$$

ARZ050-053-066-070-073-182300-
SOUTHWEST ARKANSAS

CITY           SKY/WX    TMP DP  RH WIND       PRES   REMARKS
ARKADELPHIA    CLOUDY    44  44 100 NE3       30.17F
CAMDEN         CLOUDY    48  41  76 MISG      30.16S
TEXARKANA      CLOUDY    47  43  86 E5        30.13S
EL DORADO      CLOUDY    51  45  79 N5        30.14S
DE QUEEN       CLOUDY    46  43  89 E5        30.13S FOG
$$

ARZ056-057-069-182300-
SOUTHEAST ARKANSAS

CITY           SKY/WX    TMP DP  RH WIND       PRES   REMARKS
PINE BLUFF     CLOUDY    44  40  85 N6        30.17S
STUTTGART      CLOUDY    43  39  87 N6        30.19R
MONTICELLO     CLOUDY    50  44  80 NE5       30.15F

$$




USA.gov is the U.S. government's official web portal to all federal, state and local government web resources and services.